Vorticity
8 8 8 7 7 6 5 4 5 5 5 5 5 4 5 5 5 5 4 4 4 4 4 4 4 4 4 4 4 5 4 4 4 4 4 5 5 5 5 6 6 7
5 7 8 7 6 6 6 5 4 5 5 4 4 4 5 6 6 5 5 5 4 4 5 5 5 4 4 4 4 5 5 6 6 6 6 6 6 6 6 6 6 6
4 6 8 8 7 6 6 6 5 5 5 4 5 5 4 6 7 6 6 6 5 5 5 6 6 6 5 5 5 6 6 6 7 8 8 8 9 9 8 7 6 6
4 5 6 7 7 6 6 6 5 5 5 5 6 6 5 6 6 6 7 7 7 6 6 7 7 6 6 6 7 7 6 6 7 8 8 8 9 10 10 10 9 8
5 5 5 6 6 6 5 6 6 6 6 5 5 5 6 7 7 7 8 8 8 7 7 8 7 7 7 6 7 8 7 7 7 8 8 7 8 9 10 12 12 11
7 6 6 6 5 5 4 4 4 5 5 5 5 6 7 7 7 8 8 9 8 8 8 9 8 8 8 7 7 7 7 7 6 6 7 7 8 8 8 10 12 13
8 7 7 7 6 6 5 4 4 3 4 5 5 6 7 8 9 8 10 10 10 10 10 9 8 8 7 7 7 7 6 6 6 5 6 6 7 7 8 9 10 12
7 7 8 8 7 7 6 6 6 5 5 5 6 6 7 8 10 9 10 11 11 10 9 8 8 7 7 7 7 6 6 6 6 5 5 5 5 6 7 8 10 11
7 6 7 7 7 7 7 7 7 7 6 6 5 5 5 6 8 9 10 11 11 10 8 7 6 6 6 6 6 7 6 6 6 5 6 5 5 5 5 6 8 9
9 8 7 7 6 5 5 6 6 5 5 5 4 4 4 4 5 7 8 9 11 10 8 7 6 6 7 7 7 7 6 7 7 6 6 6 5 5 4 5 6 7
8 8 8 7 6 6 5 4 4 5 4 4 3 4 4 3 4 5 6 7 9 10 8 6 6 6 6 7 7 8 8 8 7 7 7 7 6 5 4 4 5 5
6 6 7 8 7 7 7 5 4 4 5 5 5 4 4 3 3 3 4 6 7 8 7 6 6 6 7 7 7 8 9 9 9 9 8 8 7 7 5 4 3 3
7 6 4 5 7 6 7 7 7 6 5 6 6 6 5 4 4 3 3 5 5 5 5 5 4 5 6 7 7 8 9 10 10 10 10 9 9 8 7 6 4 3
6 7 6 4 5 6 7 7 7 8 7 6 6 6 6 6 5 4 3 4 5 5 4 4 3 4 6 7 7 7 8 10 10 10 11 11 10 10 9 8 7 5
4 5 6 6 5 6 6 7 7 7 7 8 7 6 5 6 6 6 5 5 5 5 5 4 2 2 4 5 6 6 6 8 9 10 11 11 12 11 11 10 9 8
14 10 4 3 5 5 3 3 5 6 6 7 8 8 7 7 6 6 6 7 7 7 6 6 4 3 2 3 4 5 5 5 6 7 8 9 10 11 11 12 11 10
21 23 15 6 5 5 3 2 2 4 7 7 6 7 7 7 8 8 7 7 7 7 7 6 6 5 4 4 4 4 4 4 4 4 6 7 7 8 9 9 11 11
13 21 24 18 13 8 5 5 5 5 6 6 5 6 5 5 7 7 7 7 7 7 7 7 6 6 5 5 5 6 6 5 5 4 4 5 5 6 7 7 8 8
7 14 23 29 31 24 13 9 8 7 5 4 4 4 4 4 4 5 6 6 6 7 7 7 6 5 5 5 4 6 7 7 6 5 4 4 4 5 5 6 6 6
9 11 15 22 29 30 25 17 11 9 10 9 6 5 5 5 4 2 3 4 5 7 8 8 8 6 6 6 5 4 6 6 7 6 5 4 4 4 4 4 5 5
18 15 11 12 18 26 32 27 16 12 14 13 10 9 9 10 11 9 7 6 5 5 5 6 8 7 6 7 6 5 5 6 7 6 6 5 4 3 3 3 4 4
9 7 3 1 5 17 28 27 20 16 14 12 11 12 12 14 17 16 14 11 8 8 10 9 9 10 10 8 7 7 6 6 7 7 7 7 6 5 5 4 4 4
2 4 6 1 -5 1 10 13 16 19 20 18 16 14 16 17 16 14 13 12 8 8 14 15 13 16 16 7 2 7 9 7 7 8 8 8 8 7 7 6 5 5
3 4 11 11 5 4 4 3 6 11 18 25 24 18 17 16 13 10 11 16 15 10 9 8 6 10 12 1 -4 5 10 8 8 8 7 8 9 9 8 8 7 6
6 2 4 8 9 9 7 5 5 4 6 14 20 20 18 17 15 10 8 13 19 16 12 9 6 5 4 -0 -3 2 5 6 8 8 8 9 9 9 9 8 7 7
9 8 6 8 10 10 7 6 7 8 5 4 6 10 13 16 20 21 19 18 19 19 16 14 12 9 9 10 7 4 3 5 6 5 7 8 8 8 9 8 7 6
Height
5955 5956 5957 5958 5959 5960 5961 5962 5963 5964 5964 5964 5965 5965 5966 5966 5967 5967 5968 5969 5969 5970 5970 5971 5972 5973 5974 5974 5975 5975 5976 5976 5976 5976 5976 5977 5977 5977 5977 5977 5977 5977
5955 5956 5957 5958 5959 5960 5961 5962 5963 5964 5965 5965 5966 5966 5966 5967 5967 5968 5969 5969 5970 5970 5971 5971 5972 5972 5973 5974 5974 5975 5975 5975 5976 5976 5976 5976 5977 5977 5977 5978 5978 5977
5954 5955 5956 5957 5959 5960 5961 5962 5963 5964 5965 5966 5966 5967 5967 5968 5968 5968 5969 5969 5970 5970 5971 5971 5971 5972 5972 5973 5973 5974 5974 5974 5975 5976 5976 5976 5976 5977 5977 5977 5977 5977
5952 5954 5955 5957 5958 5959 5960 5962 5963 5964 5965 5966 5967 5967 5968 5968 5968 5969 5969 5969 5970 5970 5970 5971 5971 5971 5972 5972 5972 5973 5973 5973 5974 5975 5975 5976 5976 5976 5976 5977 5977 5977
5951 5952 5954 5956 5957 5958 5960 5961 5962 5963 5964 5965 5966 5967 5968 5968 5968 5969 5969 5969 5969 5970 5970 5970 5970 5971 5971 5971 5972 5972 5972 5972 5973 5974 5974 5975 5975 5975 5975 5976 5976 5976
5951 5952 5953 5954 5956 5957 5959 5960 5961 5962 5963 5964 5965 5966 5967 5968 5968 5969 5969 5969 5969 5969 5969 5970 5970 5970 5970 5971 5971 5971 5971 5972 5972 5972 5973 5973 5974 5974 5974 5975 5975 5975
5950 5951 5953 5954 5955 5957 5958 5959 5960 5961 5962 5963 5964 5965 5965 5966 5967 5968 5968 5968 5968 5968 5969 5969 5969 5969 5969 5970 5970 5970 5971 5971 5971 5971 5972 5972 5972 5973 5973 5973 5974 5974
5950 5951 5952 5954 5955 5956 5957 5958 5959 5960 5961 5961 5962 5963 5963 5964 5966 5967 5967 5968 5968 5968 5968 5968 5968 5968 5968 5969 5969 5969 5969 5970 5970 5970 5971 5971 5971 5972 5972 5972 5973 5973
5949 5950 5951 5952 5953 5954 5955 5956 5957 5958 5959 5959 5960 5961 5962 5963 5964 5965 5966 5966 5967 5967 5967 5967 5967 5967 5967 5967 5968 5968 5968 5968 5969 5969 5969 5970 5970 5971 5971 5971 5972 5972
5948 5948 5949 5949 5950 5951 5952 5953 5955 5956 5957 5958 5959 5960 5960 5961 5962 5963 5964 5964 5965 5965 5966 5966 5966 5966 5966 5966 5967 5967 5967 5967 5967 5968 5968 5968 5969 5970 5970 5970 5971 5971
5946 5946 5947 5947 5948 5948 5949 5950 5952 5954 5956 5957 5958 5959 5959 5960 5961 5962 5962 5963 5963 5964 5964 5965 5965 5966 5965 5965 5965 5966 5966 5966 5966 5966 5967 5967 5968 5969 5969 5970 5970 5970
5943 5943 5944 5945 5946 5947 5947 5948 5949 5951 5953 5955 5956 5958 5959 5959 5960 5960 5961 5961 5961 5962 5962 5963 5964 5964 5964 5964 5964 5964 5965 5965 5965 5966 5966 5966 5967 5968 5968 5969 5969 5970
5939 5940 5941 5942 5943 5944 5945 5946 5947 5948 5950 5951 5953 5955 5957 5958 5959 5959 5959 5959 5960 5960 5961 5961 5962 5962 5963 5963 5963 5963 5964 5964 5964 5965 5965 5965 5966 5967 5967 5968 5968 5968
5936 5937 5938 5939 5941 5942 5943 5945 5946 5947 5948 5949 5951 5952 5954 5955 5956 5957 5958 5958 5958 5959 5959 5959 5960 5960 5961 5961 5961 5962 5962 5963 5963 5964 5964 5964 5964 5965 5966 5966 5966 5967
5933 5934 5936 5937 5939 5941 5943 5944 5945 5946 5946 5947 5948 5950 5951 5952 5953 5955 5956 5957 5957 5957 5957 5958 5958 5958 5958 5959 5959 5960 5960 5961 5962 5962 5962 5962 5963 5963 5964 5964 5965 5965
5931 5932 5934 5935 5937 5938 5939 5942 5944 5944 5944 5945 5945 5947 5948 5949 5951 5952 5953 5955 5955 5956 5956 5956 5956 5956 5956 5956 5957 5958 5958 5959 5959 5960 5960 5960 5961 5961 5962 5962 5963 5964
5927 5929 5931 5932 5934 5934 5934 5936 5940 5941 5941 5941 5942 5943 5945 5947 5948 5950 5951 5952 5953 5954 5954 5954 5954 5953 5953 5954 5955 5955 5956 5956 5957 5958 5958 5959 5959 5959 5959 5960 5960 5961
5924 5925 5926 5928 5930 5930 5930 5931 5935 5937 5937 5938 5939 5940 5942 5944 5946 5947 5948 5948 5949 5951 5952 5953 5952 5951 5951 5952 5952 5953 5954 5954 5955 5956 5957 5957 5958 5958 5958 5958 5958 5958
5922 5922 5922 5923 5924 5926 5926 5928 5931 5933 5934 5935 5935 5937 5938 5940 5942 5943 5944 5945 5945 5947 5949 5950 5951 5949 5948 5949 5950 5950 5951 5953 5953 5954 5955 5956 5956 5956 5956 5956 5957 5957
5918 5918 5919 5919 5920 5921 5923 5925 5927 5929 5930 5931 5932 5933 5935 5936 5938 5939 5940 5941 5942 5944 5945 5947 5948 5948 5947 5946 5946 5947 5948 5950 5951 5952 5953 5954 5954 5955 5955 5955 5955 5956
5914 5915 5915 5916 5917 5919 5920 5922 5923 5925 5926 5927 5929 5930 5932 5933 5935 5936 5937 5938 5939 5940 5942 5944 5945 5945 5945 5944 5944 5944 5946 5948 5949 5950 5951 5951 5952 5952 5953 5953 5953 5954
5913 5913 5913 5914 5916 5918 5918 5919 5920 5921 5922 5924 5925 5927 5929 5930 5931 5932 5933 5934 5935 5936 5939 5940 5940 5941 5942 5942 5942 5942 5943 5945 5946 5947 5948 5949 5949 5949 5950 5951 5951 5952
5911 5910 5911 5912 5915 5916 5917 5917 5917 5918 5919 5920 5921 5923 5925 5926 5928 5928 5929 5929 5930 5932 5934 5935 5934 5935 5938 5939 5939 5940 5941 5942 5944 5945 5946 5946 5946 5946 5947 5947 5948 5948
5908 5908 5909 5911 5913 5914 5914 5915 5915 5915 5916 5917 5918 5920 5922 5923 5924 5925 5926 5926 5927 5928 5930 5931 5930 5932 5935 5935 5935 5937 5938 5939 5940 5942 5943 5943 5944 5944 5944 5944 5944 5944
5905 5906 5907 5908 5910 5911 5911 5912 5912 5913 5914 5915 5916 5917 5919 5920 5921 5922 5924 5924 5924 5925 5926 5927 5928 5929 5930 5930 5931 5933 5935 5936 5937 5938 5939 5940 5941 5941 5941 5941 5941 5941
5901 5902 5904 5905 5907 5907 5908 5908 5909 5911 5912 5913 5914 5915 5916 5917 5918 5919 5920 5921 5921 5921 5922 5923 5924 5925 5925 5926 5928 5929 5930 5931 5932 5933 5934 5936 5937 5937 5937 5938 5938 5938